Vertical_Velocity
-1 -1 -2 -0 -1 -0 1 -1 -1 -1 -1 -1 -1 -0 -1 2 -1 1 -2 0 0 -1 1 -1 0 1 -0 2 -1 0 2 -2 -0
-1 2 -1 -0 -1 1 2 -3 0 -0 -0 -0 -1 -1 -0 -0 -0 1 -1 2 1 -1 0 0 1 -0 1 1 1 -0 1 -1 -2
-1 1 -1 -1 1 -2 1 -3 1 -1 -0 1 1 0 0 -0 -0 -0 -1 -1 1 1 -0 -1 -0 1 0 -0 -0 -1 1 0 0
-1 1 0 1 -1 0 3 -2 0 -2 -1 1 -1 -1 -1 -1 -1 -1 -2 -1 -2 -1 -2 -2 -0 -1 -1 1 0 -0 0 -0 -0
1 1 -1 -3 -2 3 1 0 -0 -1 -0 1 0 0 -1 -0 -1 -1 -2 -2 -3 -2 -2 -3 -2 -0 -1 -0 -0 0 -2 -1 1
-3 3 1 -1 1 2 2 -1 -1 -2 1 1 0 1 1 1 0 1 -1 0 -0 -0 1 -0 1 -0 0 1 -0 -0 -1 -1 1
-3 2 -2 1 0 1 -1 -0 0 0 0 0 -0 1 0 1 0 1 -0 0 -2 -1 1 0 0 -3 -3 -2 0 2 -1 2 2
2 2 -1 2 1 1 1 1 -0 1 1 1 -1 0 -0 -0 0 0 1 1 3 3 2 2 1 0 -1 -2 -1 -0 1 0 1
0 3 3 0 -0 -2 -1 -2 -3 0 1 1 3 1 -0 -0 -1 0 -0 -0 0 1 3 0 2 1 -0 1 0 1 1 -0 2
2 4 3 1 2 -2 0 -1 -0 0 -0 1 0 1 1 -1 -2 -1 -2 -2 -1 -1 -1 -0 0 1 0 0 -1 -3 -0 -4 -2
-2 2 2 -1 -1 -1 -3 -1 -1 -1 0 0 -0 1 -0 -1 -1 -2 -2 -3 -2 -1 -2 -1 -2 1 -0 -0 -1 -1 -1 -1 0
-4 -1 2 0 -4 -3 -4 -1 -0 -1 -1 0 1 -0 -1 -1 -1 -1 -1 -2 -1 -2 -1 -1 -1 -1 -1 -1 -0 -0 0 1 -1
-1 1 3 2 -1 -5 -2 -2 -4 -3 -2 1 1 -1 -2 0 0 -0 -1 -1 -0 -1 -1 -1 -1 0 -1 -0 1 1 0 -1 0
-3 4 2 1 -1 -3 -2 -2 -2 1 1 -0 0 -1 1 1 0 0 -1 -1 -0 -0 0 -0 -1 -1 -1 -1 -1 -3 -2 -1 2
-2 1 1 0 -2 -2 -2 -1 -4 -2 -1 0 1 -2 -0 0 -1 -0 0 0 -2 -2 -1 -0 0 -1 -1 -1 0 -1 1 -0 -2
-1 0 1 -1 -3 -2 -2 -1 1 -4 -3 -1 2 -4 -1 1 2 2 2 3 1 -1 -2 -2 -2 1 -0 -2 -2 -2 -2 -2 -2
-0 0 -1 -1 -1 -3 -2 -1 -2 -3 -2 -3 -4 -3 11 5 2 -0 1 3 4 4 3 2 2 1 2 1 0 0 -1 -1 -3
-1 -2 -0 -1 -1 -1 -1 -1 0 1 -3 -5 -3 -9 -4 -5 9 6 4 2 4 3 1 2 0 0 -2 -1 -1 -0 -1 -1 0
-0 -1 0 0 -1 0 -1 -0 -2 -2 -1 1 -2 -5 -7 -13 -17 4 3 -1 1 1 4 1 1 1 -0 -0 -1 -0 -2 -2 -2
-1 -1 1 -1 -0 -1 -1 -2 -3 -4 -2 -2 -0 3 3 1 -9 -14 1 7 0 -1 -3 -1 -1 -0 -1 -2 -1 -2 -0 1 1
Height
3127 3127 3127 3127 3127 3127 3126 3126 3126 3126 3125 3124 3123 3122 3121 3120 3119 3117 3117 3115 3114 3114 3113 3112 3112 3111 3110 3110 3110 3109 3111 3110 3110
3127 3126 3126 3126 3125 3125 3124 3124 3124 3123 3123 3122 3121 3120 3119 3118 3117 3115 3114 3113 3111 3110 3110 3109 3109 3108 3107 3107 3106 3105 3106 3107 3107
3126 3125 3125 3124 3124 3123 3122 3122 3121 3121 3121 3120 3119 3118 3116 3115 3114 3112 3111 3110 3109 3108 3107 3106 3105 3104 3103 3103 3102 3102 3102 3102 3102
3125 3125 3124 3123 3123 3122 3121 3121 3120 3120 3120 3119 3118 3117 3115 3114 3112 3111 3109 3107 3106 3105 3104 3103 3102 3102 3101 3100 3100 3099 3098 3098 3097
3124 3124 3123 3122 3121 3120 3119 3119 3118 3118 3117 3117 3116 3114 3113 3112 3110 3108 3106 3105 3103 3102 3101 3100 3099 3098 3097 3096 3096 3095 3094 3094 3093
3123 3122 3121 3120 3119 3118 3118 3117 3116 3116 3115 3114 3112 3110 3109 3108 3106 3104 3102 3101 3100 3099 3097 3097 3095 3093 3092 3092 3091 3090 3089 3088 3088
3122 3121 3119 3118 3117 3117 3116 3115 3113 3112 3111 3110 3109 3107 3105 3103 3101 3099 3097 3096 3095 3094 3093 3092 3090 3088 3087 3086 3085 3085 3084 3082 3082
3120 3118 3117 3116 3115 3114 3113 3112 3111 3109 3109 3107 3105 3103 3101 3099 3096 3094 3093 3092 3091 3090 3089 3088 3086 3083 3082 3081 3080 3080 3078 3078 3077
3118 3116 3115 3114 3113 3112 3111 3109 3108 3107 3105 3104 3102 3100 3097 3094 3092 3090 3088 3086 3084 3083 3082 3081 3079 3078 3076 3074 3074 3072 3071 3070 3070
3115 3114 3112 3111 3110 3108 3107 3106 3104 3103 3101 3099 3097 3094 3091 3089 3087 3085 3082 3079 3077 3075 3073 3071 3070 3069 3068 3066 3064 3062 3062 3060 3059
3111 3110 3109 3107 3106 3104 3103 3102 3100 3099 3097 3094 3092 3089 3086 3083 3081 3079 3076 3072 3070 3068 3065 3064 3061 3060 3058 3057 3055 3054 3052 3051 3051
3108 3107 3106 3104 3102 3100 3099 3097 3095 3094 3091 3089 3086 3083 3080 3077 3074 3072 3069 3067 3064 3061 3059 3056 3053 3052 3049 3048 3046 3044 3043 3042 3041
3105 3103 3101 3099 3098 3096 3094 3093 3090 3088 3085 3083 3080 3076 3074 3071 3068 3065 3062 3059 3056 3054 3052 3049 3046 3043 3041 3039 3037 3036 3034 3032 3030
3101 3099 3097 3096 3094 3092 3089 3086 3083 3081 3079 3076 3073 3070 3067 3065 3061 3058 3054 3052 3049 3046 3043 3041 3038 3035 3032 3030 3028 3025 3023 3022 3021
3097 3096 3094 3092 3089 3086 3084 3081 3077 3075 3073 3070 3068 3064 3061 3058 3054 3051 3048 3045 3041 3038 3036 3033 3030 3027 3024 3021 3018 3014 3012 3010 3008
3094 3092 3089 3087 3084 3082 3080 3076 3072 3069 3066 3063 3061 3057 3054 3051 3048 3045 3042 3038 3035 3030 3027 3024 3021 3018 3014 3010 3007 3004 3001 2998 2996
3090 3088 3085 3083 3080 3077 3074 3070 3066 3062 3059 3055 3052 3050 3049 3045 3041 3038 3035 3032 3029 3025 3020 3015 3011 3007 3005 3001 2998 2994 2990 2987 2983
3087 3085 3082 3079 3075 3072 3068 3064 3060 3056 3051 3047 3043 3037 3034 3030 3032 3030 3028 3023 3019 3015 3010 3006 3002 2996 2992 2988 2984 2980 2976 2971 2968
3083 3080 3077 3074 3070 3066 3062 3058 3054 3049 3045 3040 3035 3030 3024 3018 3013 3017 3017 3012 3008 3004 2999 2995 2990 2984 2979 2974 2968 2964 2960 2956 2952
3079 3076 3072 3068 3064 3060 3055 3051 3047 3042 3037 3033 3028 3024 3018 3012 3003 2995 2999 3001 2998 2993 2987 2980 2974 2968 2962 2956 2950 2944 2939 2935 2932